Regional Weather Roundup
Issued by NWS Jackson, KY

Home | Current Version | Previous Version | Graphics & Text | Print | Product List | Glossary On
Versions: 1 2 3 4 5 6 7 8 9 10 11 12 13 14 15 16 17 18 19 20 21 22 23 24 25 26 27
000
ASUS43 KJKL 031510
RWRJKL

EAST KENTUCKY HOURLY WEATHER ROUNDUP
NATIONAL WEATHER SERVICE JACKSON KY
1000 AM EST SAT DEC 03 2016

NOTE: "FAIR" INDICATES FEW OR NO CLOUDS BELOW 12,000 FEET WITH
NO SIGNIFICANT WEATHER AND/OR OBSTRUCTIONS TO VISIBILITY.

* THESE REPORTS ARE NOT UNDER NWS QUALITY CONTROL AND MAY NOT
  REPORT WEATHER SUCH AS PRECIPITATION AND FOG.

KYZ079-080-083-085-087-088-110-112-115-119-120-031600
...EASTERN KENTUCKY...

CITY           SKY/WX    TMP DP  RH WIND       PRES   REMARKS
JACKSON        CLOUDY    38  30  73 CALM      30.36R
LONDON         CLOUDY    37  31  78 CALM      30.36R
SOMERSET*      CLOUDY    34  34 100 CALM      30.40R
MONTICELLO*    CLOUDY    36  34  92 VRB7      30.39R WCI  30
WILLIAMSBURG*  CLOUDY    36  34  93 CALM      30.36S
MIDDLESBORO*   CLOUDY    35  32  88 CALM      30.37S
HARLAN APT*    CLOUDY    36  30  80 CALM      30.34R
PIKE CO APT*   CLOUDY    36  31  81 CALM      30.35R
MOREHEAD APT*  CLOUDY    37  32  81 W5        30.39R WCI  34
ASHLAND*       CLOUDY    41  28  60 CALM      30.37R
$$

KYZ035-036-041-042-044-050-067-078-099-031600
...CENTRAL KENTUCKY...

CITY           SKY/WX    TMP DP  RH WIND       PRES   REMARKS
MT STERLING*   CLOUDY    37  32  81 CALM      30.39R
FLEMING/MASON* CLOUDY    37  32  83 NW3       30.39R
DANVILLE*      CLOUDY    37  32  81 CALM      30.38F
LEXINGTON      CLOUDY    40  32  73 N6        30.38R
FRANKFORT      CLOUDY    40  31  70 NW3       30.37S
LOUISVILLE     CLOUDY    43  29  57 N6        30.37F
LEBANON*       CLOUDY    39  32  75 CALM      30.37F
GLASGOW*       CLOUDY    36  36 100 CALM      30.36F FOG
BOWLING GREEN  MOSUNNY   37  33  85 E5        30.36F WCI  33
$$

KYZ091>093-OHZ055-061-077-WVZ005-015-034-035-042-031600
...SOUTHERN OHIO/WEST VIRGINIA...

CITY           SKY/WX    TMP DP  RH WIND       PRES   REMARKS
COVINGTON      CLOUDY    38  34  85 CALM      30.37R
COLUMBUS       CLOUDY    37  31  78 NW5       30.35R WCI  33
DAYTON         CLOUDY    37  29  72 W7        30.36R WCI  32
WILMINGTON     CLOUDY    36  33  89 W7        30.36R WCI  30
HUNTINGTON     CLOUDY    40  29  64 CALM      30.37R
CHARLESTON     CLOUDY    39  29  67 CALM      30.35R
PINEVILLE*     CLOUDY    37  24  60 MISG      30.38R
BECKLEY        CLOUDY    32  24  72 NW5       30.29R WCI  27
BLUEFIELD      CLOUDY    30  22  72 NW5       30.28R WCI  25
LOGAN CO APT*  CLOUDY    36  27  69 CALM      30.33R
$$

VAZ002-007-008-TNZ017-027-036-066-071-031600
...SOUTHWEST VIRGINIA/EAST TENNESSEE...

CITY           SKY/WX    TMP DP  RH WIND       PRES   REMARKS
WISE*          CLOUDY    32  28  86 CALM      30.31R
JONESVILLE*      N/A     36  32  87 CALM      30.37S
ABINGDON*      CLOUDY    37  28  69 CALM      30.32R
BRISTOL        CLOUDY    39  29  67 NE7       30.33S WCI  34
MORRISTOWN*    SUNNY     37  32  81 E3        30.33R
SEVIERVILLE*   SUNNY     34  30  86 CALM      30.34S
KNOXVILLE      CLOUDY    39  31  72 N10       30.33S WCI  32
OAK RIDGE      CLOUDY    41  30  65 NE3       30.36R
CROSSVILLE     MOSUNNY   36  29  75 NE7       30.31F WCI  30
NASHVILLE      CLOUDY    42  32  67 E8        30.34F
$$

...KEY TO REMARKS...
VSB - VISIBILITY IN MILES
WCI - WIND CHILL INDEX
HX  - HEAT INDEX

$$




USA.gov is the U.S. government's official web portal to all federal, state and local government web resources and services.